Weather Roundup
Issued by NWS Springfield, MO

Home | Current Version | Previous Version | Text Only | Print | Product List | Glossary On
Versions: 1 2 3 4 5 6 7 8 9 10 11 12 13 14 15 16 17 18 19 20 21 22 23 24 25 26 27 28 29 30 31 32 33 34 35 36 37 38 39 40 41 42 43 44 45 46 47 48 49 50
000
NZUS99 KSGF 310707
HRRSGF

HOURLY WEATHER
NATIONAL WEATHER SERVICE SPRINGFIELD MO
200 AM CDT SUN JUL 31 2016

......SGF CWA......

CITY           SKY/WX    TMP DP  RH WIND       PRES   REMARKS
SPRINGFIELD    CLEAR     73  69  87 SE3       29.99F
JOPLIN         PTCLDY    72  69  90 SE3       29.97F
WEST PLAINS    CLEAR     72  69  90 CALM      30.02F
ROLLA          CLEAR     68  65  90 CALM      30.00F
OSAGE BEACH    PTCLDY    69  67  93 CALM      30.01F
BRANSON        MOCLDY    70  68  94 CALM      30.02F

......SURROUNDING SGF CWA......

CITY           SKY/WX    TMP DP  RH WIND       PRES   REMARKS
CHANUTE        PTCLDY    73  70  90 SE7       29.95F
PARSONS        PTCLDY    74  71  91 E3        29.96F
COFFEYVILLE    CLEAR     72  71  97 E3        29.95F
EMPORIA        CLEAR     73  70  90 SE9       29.93F
GROVE OK       MOCLDY    72  72 100 CALM      29.98S
ROGERS AR      CLOUDY    72  70  93 SE7       30.01S THUNDER
SILOAM SPRINGS PTCLDY    72  63  73 SE3       30.00F
HARRISON AR    CLOUDY    70  68  93 S6        30.02F
NEAR YELLVILLE PTCLDY    70  66  88 CALM      29.97F

......KANSAS AND MISSOURI......

CITY           SKY/WX    TMP DP  RH WIND       PRES   REMARKS
KANSAS CTY INT CLEAR     72  65  78 SE8       29.97F
DOWNTOWN KC    CLEAR     76  67  73 SE7       29.96F
COLUMBIA       CLEAR     67  66  97 E5        30.01F
SEDALIA        CLEAR     70  66  87 SE5       30.00F
ST JOSEPH      CLEAR     71  66  84 SE6       29.96F
ST LOUIS       PTCLDY    76  66  71 CALM      30.00F
SPIRIT OF STL  MOCLDY    69  68  96 CALM      29.98F
KIRKSVILLE     PTCLDY    63  61  93 CALM      30.01F FOG
WICHITA        PTCLDY    76  70  82 SE10      29.90F
TOPEKA         CLEAR     73  69  87 E6        29.94F
OLATHE         CLEAR     71  67  87 SE7       29.97F

......TENNESSEE......

CITY           SKY/WX    TMP DP  RH WIND       PRES   REMARKS
MEMPHIS        CLOUDY    78  72  81 W9        30.00R
NASHVILLE      MOCLDY    76  71  85 S3        30.00S

......ARKANSAS.......

CITY           SKY/WX    TMP DP  RH WIND       PRES   REMARKS
FAYETTEVILLE   PTCLDY    72  71  97 CALM      30.00F
FT SMITH       PTCLDY    74  69  85 E6        29.97S
LITTLE ROCK    MOCLDY    73  70  90 SW6       29.99F

......OKLAHOMA.......

CITY           SKY/WX    TMP DP  RH WIND       PRES   REMARKS
TULSA          PTCLDY    78  72  81 S7        29.92F
PONCA CITY     CLEAR     76  70  82 SE10      29.91F
MCALESTER      PTCLDY    78  68  71 S3        29.97S
OKLAHOMA CITY  CLEAR     76  71  85 SE7       29.94S

......IOWA............

CITY           SKY/WX    TMP DP  RH WIND       PRES   REMARKS
DES MOINES     CLEAR     69  65  86 S6        29.99S
QUAD CITIES    PTCLDY    69  65  86 E9        30.01S

......ILLINOIS........

CITY           SKY/WX    TMP DP  RH WIND       PRES   REMARKS
QUINCY         CLEAR     68  66  93 CALM      30.00F
CHICAGO        MOCLDY    67  64  90 NW7       30.00S




USA.gov is the U.S. government's official web portal to all federal, state and local government web resources and services.